Temperature
12 13 13 13 13 13 13 14 14 14 14 14 14 13 13 13 13 13 13 13 13 12 12 12 12 12 12 12 12 11 11 11 11 11 10 10 10 10 10 10 10 10 9
12 12 12 13 13 13 13 13 13 14 14 14 14 13 13 13 13 13 13 12 12 12 12 12 12 12 12 11 11 11 11 11 10 10 10 9 10 10 10 10 9 9 9
11 11 12 12 12 13 13 13 13 13 13 13 13 13 13 13 13 13 12 12 12 12 12 12 12 12 12 11 11 11 11 11 10 10 9 9 9 9 9 9 9 9 9
10 11 11 12 12 12 12 13 13 13 13 13 13 13 13 13 13 13 12 12 12 12 12 12 12 11 11 11 11 11 10 10 10 10 9 9 9 9 9 9 9 9 9
10 10 11 11 12 12 12 12 13 13 13 13 13 13 13 13 13 12 12 12 12 12 11 11 11 11 11 11 11 10 10 10 9 9 9 9 8 8 8 8 8 8 8
9 10 11 11 11 11 12 12 12 12 13 12 12 12 12 12 12 12 12 12 11 11 11 11 11 11 11 11 10 10 10 9 9 9 9 8 8 8 8 7 7 8 8
9 9 10 10 11 11 11 11 12 12 12 12 12 12 12 12 12 12 12 11 11 11 11 11 10 10 10 10 10 9 9 9 9 8 8 8 8 7 7 7 7 6 7
8 9 9 10 10 10 11 11 11 11 11 11 11 11 11 11 11 11 11 11 11 11 10 10 10 10 10 10 9 9 9 9 8 8 8 8 7 7 7 6 6 6 6
7 8 9 9 9 10 10 10 10 11 11 11 11 11 11 11 11 11 10 10 10 10 10 10 9 9 9 9 9 9 8 8 8 8 8 7 7 7 6 6 6 5 4
6 7 8 8 9 9 10 10 10 10 10 10 10 10 10 10 10 10 10 10 10 9 9 9 9 9 9 9 8 8 8 8 8 7 7 7 7 6 6 6 6 5 5
5 6 7 7 8 9 9 9 9 9 9 9 10 10 10 10 10 9 9 9 9 9 9 9 8 8 8 8 8 8 8 7 7 7 7 6 6 6 6 6 5 5 5
5 6 6 7 7 8 8 8 8 8 8 9 9 9 9 9 9 9 9 9 9 8 8 8 8 8 8 7 7 7 7 7 7 6 6 6 6 6 5 5 5 5 4
4 5 5 6 6 7 7 7 8 8 8 8 8 8 8 8 8 8 8 8 8 8 7 7 7 7 7 7 7 7 7 6 6 6 6 6 5 5 5 5 4 4 4
3 4 4 5 5 6 6 6 7 7 7 7 7 7 7 7 7 7 7 7 7 7 7 7 6 6 6 6 6 6 6 6 6 6 5 5 5 5 5 4 4 4 3
3 3 3 4 5 5 5 5 6 6 6 6 6 6 6 6 6 6 6 6 6 6 6 6 6 5 5 5 5 5 5 5 5 5 5 5 5 4 4 3 3 3 3
2 2 3 3 4 4 4 5 5 5 5 5 5 5 5 5 5 6 5 5 5 5 5 5 5 5 5 5 5 5 5 5 4 4 4 4 4 4 3 3 3 2 2
1 2 2 3 3 3 4 4 4 4 4 4 4 4 4 4 4 4 4 4 5 4 4 4 4 4 4 4 4 4 4 4 4 4 4 3 3 3 3 3 2 2 2
1 1 2 2 2 3 3 3 3 3 3 3 3 3 3 3 3 3 4 4 4 4 4 4 4 4 4 4 3 3 3 3 3 3 3 3 2 2 2 2 2 2 2
0 1 1 2 2 2 2 2 2 2 2 3 3 3 3 3 3 3 3 3 3 3 3 3 3 3 3 3 3 3 3 3 3 2 2 2 2 2 1 1 1 1 1
0 0 1 1 1 1 1 2 2 2 2 2 2 2 2 2 2 2 2 2 2 2 2 2 2 2 2 2 2 2 2 2 2 2 1 1 1 1 1 0 0 0 0
-1 -0 0 0 1 1 1 1 1 1 1 1 2 2 2 2 2 2 2 2 2 2 1 1 1 1 1 1 1 1 1 1 1 1 1 1 1 0 0 0 -0 -0 -1
-1 -1 -1 -0 -0 -0 0 0 1 1 0 1 1 1 1 1 1 1 1 1 1 1 1 1 1 1 1 1 1 1 0 0 0 0 0 0 -0 -0 -0 -0 -1 -1 -1
-2 -2 -1 -1 -1 -1 -1 -1 -0 -0 -0 -0 0 0 0 0 0 0 1 0 0 0 0 0 0 0 0 -0 -0 -0 -0 -0 -1 -1 -1 -1 -1 -1 -1 -1 -1 -1 -2
-2 -2 -2 -2 -2 -2 -2 -2 -1 -1 -1 -1 -1 -1 -0 -0 -0 -0 -0 -0 -0 -0 -0 -1 -1 -1 -1 -1 -1 -1 -1 -1 -1 -1 -1 -1 -1 -1 -1 -1 -2 -2 -2
-3 -3 -3 -3 -2 -2 -2 -2 -2 -2 -2 -1 -1 -1 -1 -1 -1 -1 -1 -1 -1 -1 -1 -1 -1 -1 -1 -2 -2 -2 -2 -2 -2 -2 -2 -2 -2 -2 -2 -2 -2 -2 -3
-4 -4 -3 -3 -3 -3 -3 -3 -3 -2 -2 -2 -2 -2 -2 -2 -2 -2 -2 -2 -2 -2 -2 -2 -2 -2 -2 -2 -3 -3 -3 -3 -3 -3 -2 -2 -2 -2 -3 -3 -3 -3 -3
Wind_Speed
5 3 4 5 6 6 7 9 8 9 8 7 7 7 6 5 4 5 7 9 9 10 9 6 6 6 5 5 5 4 4 2 2 2 1 2 1 0 0 0 1 1 1
4 2 2 3 5 6 7 8 9 9 8 6 6 5 5 4 4 4 6 8 9 10 9 7 6 5 5 5 5 4 3 2 1 2 2 1 2 2 1 1 1 1 1
4 4 3 3 4 6 7 8 9 8 8 7 6 5 4 4 3 4 4 5 9 10 9 9 7 6 6 6 6 5 5 3 1 1 3 2 3 2 2 1 1 1 1
4 3 3 3 5 6 6 7 8 8 8 8 8 10 7 6 5 5 5 5 7 8 9 9 8 7 6 6 5 4 4 4 3 1 0 1 3 2 2 2 2 2 2
3 3 3 4 4 4 5 5 6 7 7 8 9 10 7 5 4 4 5 5 4 6 8 8 7 6 5 5 5 4 4 4 4 3 2 1 1 1 2 3 3 3 2
3 3 3 2 1 1 3 3 5 6 6 8 9 9 10 8 8 7 6 5 3 4 5 6 6 6 5 5 5 5 5 4 4 3 3 3 2 2 2 3 4 4 3
3 2 2 1 1 2 3 4 5 5 6 7 7 8 9 10 10 9 8 6 4 3 4 5 5 5 5 6 5 5 4 4 4 4 3 3 3 2 3 2 3 3 3
3 2 2 2 2 3 3 4 5 4 5 6 6 6 7 7 6 7 7 7 5 5 5 5 5 5 5 5 5 4 4 4 4 4 3 2 2 2 3 3 2 3 3
4 3 2 2 1 2 3 4 5 4 5 5 5 6 7 6 6 6 5 5 4 4 5 6 5 5 5 5 5 4 4 3 4 4 3 3 2 2 2 3 3 3 4
6 5 4 3 2 0 1 2 3 4 3 4 5 5 5 6 6 6 6 6 5 5 5 5 5 4 4 4 4 3 3 4 3 3 3 3 2 2 2 3 3 4 4
6 5 4 4 3 2 1 2 2 3 3 3 3 4 4 5 5 6 6 6 5 6 6 6 5 4 4 4 4 3 4 4 3 3 3 3 3 2 2 2 2 3 4
6 5 5 5 5 4 2 2 2 2 2 3 4 4 4 4 5 5 5 5 5 5 5 5 5 4 4 3 4 4 3 4 4 3 3 3 2 3 2 2 3 3 4
7 6 6 6 5 4 3 2 2 3 3 3 4 4 4 4 5 5 5 5 5 5 4 5 4 4 3 3 3 3 3 3 3 3 3 3 3 3 3 3 3 3 3
6 6 6 6 6 5 4 2 2 3 3 4 5 4 4 4 4 5 5 5 5 5 4 4 4 3 2 2 2 2 2 2 2 2 2 3 3 4 3 3 3 3 3
7 7 6 5 5 5 4 3 2 3 3 4 5 4 4 4 4 5 5 5 5 4 4 4 3 3 2 2 2 2 3 2 2 1 2 2 2 3 3 2 2 2 3
7 7 6 5 5 4 4 3 2 2 3 4 4 4 5 5 4 4 5 5 5 4 4 4 3 2 1 3 3 2 2 2 2 2 2 2 2 2 3 3 3 3 3
7 7 6 5 5 4 3 2 2 2 3 4 4 4 4 4 4 4 4 5 4 4 4 3 3 2 2 2 2 2 2 2 2 2 2 2 2 2 2 3 4 4 5
7 7 6 5 5 4 3 2 2 2 3 4 4 3 4 4 4 4 4 4 3 4 3 3 3 2 1 2 2 2 2 1 1 2 2 3 3 3 3 2 3 3 3
7 6 5 5 4 3 2 2 2 3 3 3 3 3 4 4 4 4 3 3 4 3 3 2 2 2 1 1 1 1 1 1 1 2 2 2 3 4 4 2 3 4 4
6 6 5 5 4 3 2 2 2 2 1 1 2 2 3 4 4 3 3 3 3 3 2 2 1 1 0 0 0 0 1 1 1 1 2 3 3 4 4 2 3 4 5
6 5 5 4 4 3 2 2 2 1 1 1 2 2 3 3 4 4 3 3 3 3 3 2 1 0 0 1 1 1 1 1 1 2 2 2 4 5 5 4 3 5 4
6 5 5 5 4 3 2 2 1 1 2 2 2 2 2 3 3 4 3 3 4 3 2 2 1 1 1 1 2 2 2 2 1 2 2 3 5 5 5 4 4 5 4
5 5 4 5 5 4 2 2 2 2 2 3 3 3 3 3 3 3 3 3 3 2 2 1 1 1 1 2 3 3 3 3 2 2 3 4 5 4 3 4 4 3 1
5 4 4 4 5 4 3 1 1 2 2 3 2 2 3 3 3 2 2 2 2 2 2 2 1 1 1 1 1 1 1 2 2 2 2 4 4 3 3 3 3 2 1
4 4 4 3 4 4 3 3 2 2 2 2 2 2 2 2 2 2 1 1 1 2 2 2 3 2 2 3 3 2 1 1 2 1 1 1 2 2 2 2 2 2 2
3 3 4 4 4 4 4 3 2 2 2 2 2 2 2 1 1 1 1 2 1 1 2 1 2 2 3 4 4 4 3 3 3 2 1 1 2 2 2 2 2 2 2
Wind_Direction
263 252 220 202 189 183 182 180 177 172 166 168 168 166 171 169 164 166 166 167 165 164 157 147 145 145 149 153 145 131 117 104 111 99 52 6 352 49 227 60 46 17 4
299 287 231 196 188 190 190 185 184 178 177 178 174 167 158 160 161 156 160 170 169 167 162 152 152 152 150 146 148 139 131 120 123 134 125 340 332 321 293 285 254 311 354
269 269 243 211 197 196 197 194 188 182 179 168 153 138 127 122 147 165 172 175 172 169 164 162 157 156 160 168 171 164 153 162 170 129 147 159 229 298 312 296 297 301 310
277 265 243 224 211 210 202 194 186 183 179 169 168 167 173 176 184 179 175 167 167 165 166 164 162 162 163 171 176 171 166 156 169 158 73 153 155 172 301 308 309 304 282
277 260 247 225 219 211 196 190 182 182 180 177 176 174 175 174 159 152 158 168 167 166 166 165 162 162 165 170 170 170 170 173 174 173 162 144 96 151 194 278 304 311 281
294 280 281 252 215 205 191 180 176 179 179 180 178 178 175 170 162 165 174 175 172 166 163 162 163 165 165 171 175 175 175 181 175 177 176 171 171 185 189 235 273 287 288
294 299 313 290 223 207 196 184 178 182 181 177 181 183 179 177 177 177 180 178 177 179 181 165 167 168 167 166 161 168 178 181 177 185 196 197 202 183 183 206 255 277 287
319 305 287 266 228 213 200 188 186 182 179 178 180 174 171 176 180 180 179 182 183 183 175 165 165 167 165 162 160 171 181 176 180 186 190 199 213 201 197 194 213 279 289
335 335 336 324 283 228 208 191 186 175 175 176 169 169 170 168 171 170 170 171 169 165 163 162 164 167 164 163 163 176 183 174 184 192 191 205 218 213 216 207 199 215 270
349 355 355 348 341 273 183 161 165 170 168 160 164 171 171 167 165 162 166 166 166 159 160 158 164 164 163 160 162 172 175 176 194 195 188 206 219 219 218 214 218 215 231
341 342 348 352 3 32 88 127 135 130 140 147 145 145 154 156 157 162 165 162 156 158 163 164 163 163 165 164 166 180 180 182 193 194 195 214 217 220 228 224 227 229 226
344 349 359 11 18 25 45 90 119 124 132 133 128 131 136 141 148 153 155 152 151 150 153 156 155 160 163 169 172 178 182 186 196 202 200 220 216 222 227 222 230 239 232
354 2 9 11 10 12 26 63 103 113 115 117 118 117 125 133 138 139 140 140 140 141 144 145 147 154 164 169 173 175 184 193 198 201 206 218 207 226 232 230 237 247 254
354 1 3 3 4 8 16 34 79 101 108 109 111 114 117 122 125 126 124 126 130 134 140 141 140 142 148 156 165 176 185 197 205 212 215 221 219 228 230 240 241 248 262
352 352 351 353 1 9 13 21 50 89 105 110 111 113 109 108 112 115 119 122 122 124 127 126 125 130 141 152 159 174 183 183 202 233 240 245 254 257 248 254 255 255 263
338 338 343 348 353 357 1 14 25 68 102 106 105 108 108 106 106 109 115 118 116 114 114 119 125 129 145 150 148 158 181 180 199 239 265 274 274 283 293 299 297 289 275
328 330 333 334 335 341 351 10 18 64 94 102 100 103 110 110 107 108 107 111 114 114 112 110 108 106 111 121 135 151 152 170 209 227 251 276 292 311 287 292 302 301 297
328 329 330 330 334 345 360 29 55 81 97 105 107 108 115 116 110 109 107 105 105 109 111 105 104 102 92 86 87 90 127 162 223 242 239 244 266 271 269 270 281 281 284
322 321 321 323 334 344 3 50 59 76 87 102 114 120 122 120 114 112 113 112 109 103 103 106 108 103 62 54 64 64 125 165 272 272 255 251 260 280 290 280 280 292 295
331 333 335 338 341 344 23 80 78 80 87 100 114 126 130 128 127 126 121 116 117 118 110 98 96 114 162 6 18 51 168 195 266 288 283 290 287 291 298 274 268 282 291
336 342 345 347 344 352 46 78 83 76 67 90 99 108 123 128 128 122 119 119 115 110 106 101 68 38 266 298 305 290 213 219 246 282 296 296 304 301 305 301 271 278 298
345 349 352 349 349 5 45 62 46 39 65 79 90 95 105 117 117 118 117 118 121 118 117 114 64 2 327 316 304 307 299 291 263 277 285 292 308 312 313 311 299 308 326
347 353 355 353 355 10 46 62 21 53 74 77 81 87 91 100 111 121 121 115 120 132 143 154 185 310 329 322 324 324 320 316 312 278 291 305 322 333 332 329 330 339 343
345 350 357 359 356 10 32 42 41 67 83 84 83 88 95 92 92 104 122 136 153 161 175 191 210 253 299 304 308 313 319 326 331 324 326 342 353 358 352 350 351 351 322
343 350 350 350 350 4 17 20 34 73 87 87 88 85 84 94 89 85 118 175 207 204 213 215 212 217 248 270 288 303 293 277 267 311 338 342 337 350 346 341 339 342 342
342 349 356 360 359 10 14 10 23 77 106 101 89 87 88 86 88 81 43 34 24 357 337 294 264 261 268 277 285 291 299 302 293 324 319 318 319 311 309 311 319 324 318
Height
1477 1479 1481 1483 1486 1489 1492 1494 1498 1501 1504 1507 1510 1513 1516 1520 1523 1525 1528 1530 1532 1534 1536 1537 1539 1540 1542 1543 1544 1545 1546 1547 1547 1548 1547 1548 1548 1548 1548 1548 1548 1548 1547
1474 1475 1477 1479 1481 1485 1488 1491 1495 1498 1501 1504 1507 1511 1514 1517 1520 1523 1525 1527 1529 1531 1533 1535 1536 1538 1539 1540 1542 1543 1543 1544 1545 1546 1546 1545 1546 1545 1546 1545 1545 1545 1545
1471 1472 1473 1475 1478 1481 1484 1488 1491 1494 1498 1501 1504 1508 1511 1514 1517 1519 1521 1524 1526 1529 1530 1532 1534 1535 1536 1537 1538 1540 1541 1541 1542 1543 1544 1544 1543 1543 1543 1542 1542 1542 1542
1468 1470 1471 1472 1474 1477 1481 1485 1488 1491 1494 1497 1500 1503 1506 1508 1511 1515 1518 1521 1523 1526 1528 1529 1531 1532 1533 1534 1535 1537 1538 1538 1539 1540 1541 1542 1541 1541 1540 1540 1540 1539 1539
1466 1467 1468 1469 1471 1474 1477 1481 1484 1487 1490 1493 1497 1500 1503 1506 1509 1512 1515 1517 1520 1522 1524 1526 1527 1529 1530 1531 1532 1533 1534 1535 1536 1536 1537 1538 1538 1538 1538 1536 1536 1536 1535
1464 1464 1465 1467 1468 1470 1474 1477 1480 1483 1486 1490 1493 1496 1499 1502 1505 1508 1510 1513 1516 1518 1520 1522 1524 1525 1526 1528 1529 1530 1531 1532 1532 1533 1534 1534 1534 1534 1534 1533 1531 1531 1530
1463 1463 1463 1464 1465 1467 1470 1472 1475 1478 1482 1485 1488 1491 1495 1498 1501 1504 1507 1509 1512 1514 1516 1518 1520 1521 1523 1524 1525 1526 1527 1528 1528 1529 1530 1530 1531 1531 1531 1530 1528 1526 1525
1461 1461 1461 1462 1463 1465 1467 1469 1471 1474 1477 1481 1484 1487 1491 1494 1497 1500 1503 1505 1508 1510 1512 1514 1516 1518 1519 1520 1522 1522 1523 1524 1525 1525 1526 1526 1527 1527 1527 1526 1525 1523 1521
1459 1459 1459 1460 1461 1462 1464 1466 1468 1470 1473 1477 1480 1483 1486 1490 1493 1496 1499 1502 1504 1506 1508 1510 1512 1513 1515 1516 1518 1518 1519 1520 1521 1522 1522 1522 1522 1523 1523 1522 1522 1521 1517
1458 1457 1458 1458 1458 1459 1461 1463 1465 1467 1470 1473 1476 1479 1482 1485 1489 1492 1495 1497 1500 1502 1504 1506 1508 1509 1511 1512 1513 1514 1515 1516 1517 1517 1518 1518 1518 1518 1518 1518 1517 1516 1515
1458 1457 1457 1457 1457 1457 1458 1460 1462 1465 1467 1469 1472 1475 1478 1481 1485 1488 1491 1493 1496 1498 1500 1502 1504 1505 1507 1508 1509 1510 1511 1512 1512 1513 1513 1514 1514 1514 1513 1513 1513 1512 1511
1458 1457 1456 1455 1455 1455 1456 1458 1461 1462 1464 1466 1469 1472 1475 1478 1481 1484 1487 1490 1492 1494 1496 1498 1499 1501 1502 1504 1505 1505 1506 1507 1508 1508 1509 1509 1509 1509 1509 1508 1508 1507 1506
1458 1456 1455 1454 1455 1455 1455 1457 1458 1460 1462 1464 1466 1469 1472 1475 1478 1480 1483 1486 1488 1490 1492 1494 1495 1497 1498 1499 1500 1501 1502 1503 1503 1504 1505 1505 1505 1505 1504 1504 1503 1502 1501
1458 1456 1455 1455 1455 1454 1455 1456 1457 1459 1460 1462 1464 1467 1469 1472 1475 1477 1480 1482 1485 1487 1489 1490 1491 1493 1494 1495 1496 1497 1498 1499 1500 1500 1501 1501 1501 1500 1500 1499 1499 1498 1497
1459 1457 1455 1454 1454 1454 1454 1455 1456 1457 1458 1460 1462 1464 1467 1469 1472 1474 1477 1479 1481 1484 1486 1487 1488 1489 1491 1492 1493 1494 1494 1494 1496 1496 1496 1496 1496 1496 1495 1495 1494 1493 1492
1459 1457 1456 1455 1454 1454 1454 1454 1454 1456 1457 1459 1461 1463 1465 1467 1470 1472 1474 1476 1478 1481 1483 1484 1485 1486 1487 1488 1490 1491 1491 1491 1492 1492 1492 1492 1492 1491 1491 1490 1490 1489 1488
1460 1458 1456 1455 1454 1454 1454 1453 1454 1454 1456 1457 1459 1461 1463 1466 1468 1470 1472 1474 1476 1478 1480 1481 1482 1484 1485 1486 1487 1488 1488 1488 1488 1488 1488 1488 1488 1487 1486 1486 1485 1484 1483
1460 1457 1456 1455 1454 1453 1453 1453 1453 1454 1455 1456 1458 1460 1462 1464 1466 1468 1470 1472 1474 1476 1477 1478 1480 1481 1482 1483 1484 1484 1484 1484 1484 1484 1484 1483 1483 1483 1482 1481 1480 1479 1478
1459 1457 1455 1454 1452 1452 1452 1452 1452 1453 1454 1456 1457 1459 1461 1463 1465 1466 1468 1470 1472 1473 1475 1476 1477 1478 1479 1480 1480 1481 1480 1480 1480 1480 1480 1479 1479 1478 1478 1477 1475 1474 1473
1458 1456 1454 1452 1451 1451 1451 1451 1451 1452 1453 1455 1456 1458 1460 1461 1463 1465 1467 1468 1470 1471 1473 1473 1475 1476 1476 1477 1477 1477 1477 1476 1476 1476 1476 1475 1475 1474 1474 1473 1472 1470 1468
1457 1455 1453 1451 1450 1450 1450 1450 1451 1452 1453 1454 1455 1457 1458 1460 1462 1463 1465 1467 1468 1469 1470 1470 1472 1473 1473 1473 1474 1473 1473 1473 1472 1472 1472 1472 1471 1470 1470 1469 1468 1466 1465
1455 1454 1452 1451 1450 1450 1449 1449 1449 1451 1452 1453 1454 1455 1457 1459 1460 1461 1463 1464 1465 1466 1466 1467 1468 1469 1470 1470 1470 1470 1470 1469 1469 1468 1468 1468 1467 1466 1465 1464 1463 1462 1461
1455 1453 1452 1450 1450 1449 1449 1448 1449 1450 1451 1452 1453 1454 1456 1457 1458 1459 1460 1461 1462 1463 1463 1464 1465 1465 1466 1466 1466 1466 1466 1466 1465 1464 1464 1464 1463 1462 1461 1460 1459 1458 1457
1454 1453 1451 1450 1449 1449 1448 1449 1449 1450 1450 1451 1452 1453 1454 1455 1456 1457 1458 1459 1459 1460 1460 1461 1461 1462 1462 1462 1462 1462 1462 1462 1461 1461 1460 1460 1459 1459 1457 1456 1455 1454 1453
1453 1452 1451 1450 1449 1448 1448 1448 1448 1449 1449 1450 1450 1451 1452 1453 1454 1455 1456 1456 1457 1457 1458 1458 1458 1458 1458 1459 1459 1459 1458 1458 1458 1457 1456 1456 1455 1454 1453 1452 1451 1450 1449
1453 1452 1451 1449 1448 1448 1447 1447 1447 1448 1448 1448 1448 1449 1450 1451 1451 1452 1453 1453 1454 1454 1455 1455 1455 1455 1455 1455 1455 1455 1455 1454 1454 1454 1452 1452 1451 1450 1449 1448 1448 1447 1446